This is the latest recevied weather packets stored in our database for station/object OH6HPS. If no packets are shown the sender has not sent any weather packets the latest 10 day(s).
| Time | Temp. | Humidity | Pressure | Rain* | Wind** | Luminosity | Snow |
|---|---|---|---|---|---|---|---|
| 1777643765 | 22.22° C | 37% | 1017 hPa | 0 mm | - | 475 W/m² | - |
| 1777643163 | 22.22° C | 34% | 1017 hPa | 0 mm | - | 489 W/m² | - |
| 1777642563 | 22.22° C | 35% | 1017.1 hPa | 0 mm | - | 510 W/m² | - |
| 1777641962 | 22.22° C | 34% | 1017.3 hPa | 0 mm | - | 526 W/m² | - |
| 1777641361 | 22.22° C | 35% | 1017.3 hPa | 0 mm | - | 542 W/m² | - |
| 1777640760 | 22.22° C | 35% | 1017.4 hPa | 0 mm | - | 563 W/m² | - |
| 1777640160 | 22.22° C | 35% | 1017.6 hPa | 0 mm | - | 573 W/m² | - |
| 1777639560 | 21.67° C | 37% | 1017.7 hPa | 0 mm | - | 586 W/m² | - |
| 1777638958 | 21.67° C | 36% | 1017.7 hPa | 0 mm | - | 598 W/m² | - |
| 1777638357 | 21.67° C | 36% | 1017.9 hPa | 0 mm | - | 612 W/m² | - |
| 1777637757 | 21.67° C | 37% | 1018 hPa | 0 mm | - | 623 W/m² | - |
| 1777637154 | 22.22° C | 38% | 1018.2 hPa | 0 mm | - | 633 W/m² | - |
| 1777636554 | 21.67° C | 35% | 1018.3 hPa | 0 mm | - | 642 W/m² | - |
| 1777635955 | 21.67° C | 33% | 1018.4 hPa | 0 mm | - | 652 W/m² | - |
| 1777635356 | 21.67° C | 35% | 1018.5 hPa | 0 mm | - | 656 W/m² | - |
| 1777634753 | 21.67° C | 37% | 1018.5 hPa | 0 mm | - | 670 W/m² | - |
| 1777634154 | 21.11° C | 37% | 1018.6 hPa | 0 mm | - | 665 W/m² | - |
| 1777633554 | 20.56° C | 37% | 1018.7 hPa | 0 mm | - | 677 W/m² | - |
| 1777632954 | 20.56° C | 38% | 1018.8 hPa | 0 mm | - | 682 W/m² | - |
| 1777632352 | 20.56° C | 38% | 1018.9 hPa | 0 mm | - | 682 W/m² | - |
| 1777631756 | 20.56° C | 39% | 1018.9 hPa | 0 mm | - | 674 W/m² | - |
| 1777631151 | 20° C | 40% | 1019.1 hPa | 0 mm | - | 674 W/m² | - |
| 1777630549 | 19.44° C | 42% | 1019.1 hPa | 0 mm | - | 668 W/m² | - |
| 1777629948 | 19.44° C | 42% | 1019.3 hPa | 0 mm | - | 686 W/m² | - |
| 1777629346 | 19.44° C | 42% | 1019.4 hPa | 0 mm | - | 681 W/m² | - |
* Rain latest hour (hover to see other rain measurements)
** Current wind speed in m/s (hover to see current wind gust speed)